Location: Widewater Village at Stafford
(38.4893°N, 77.3783°W)
Time: 11:28:33
(UTC+00:00)

Tiangong - Pass Details

Date: 05 December 2022
Orbit: 383 x 386 km, 41.5° (Epoch: 30 January)

Event Time Altitude Azimuth Distance (km) Brightness Sun altitude
Rises 00:10:31 0° 284° (WNW) 2,259 2.8 -27.1°
Reaches altitude 10° 00:12:38 10° 290° (WNW) 1,407 1.5 -27.5°
Enters shadow 00:13:15 15° 293° (WNW) 1,163 0.9 -27.7°
